#timestamp,LO_Frequency,Hit,StdDev 
1588954355.7,286046994.4,P
1588954375.5,286046994.1,P
1588954395.4,286046993.9,P
1588954415.2,286046996.2,Y
1588954435.0,286047004.4,P
1588954436.0,286047004.4,N
1588954455.8,286047003.8,N
1588954475.6,286047002.0,N
1588954495.5,286047000.4,N
1588954515.3,286047001.2,N
1588954535.1,286046999.0,N
1588954555.9,286046998.3,N
1588954575.7,286046999.2,N
1588954595.5,286046999.5,N
1588954615.4,286046997.2,N
1588954635.2,286046997.4,N
1588954655.1,286046997.7,N
1588954656.0,286046997.7,N
1588954675.8,286046996.7,N
1588954695.6,286046997.0,N
1588954715.5,286046999.3,N
1588954735.3,286046999.0,N
1588954755.1,286046999.0,N
1588954775.9,286046999.6,N
1588954795.7,286046999.5,N
1588954815.6,286046999.1,N
1588954835.4,286046998.1,N
1588954855.2,286046998.3,N
1588954875.1,286047000.8,N
1588954876.0,286047000.8,N
1588954895.8,286047001.1,N
1588954915.7,286046998.6,N
1588954935.5,286046998.3,N
1588954955.3,286046998.6,N
1588954975.2,286046998.2,N
1588954995.9,286047000.6,N
1588955015.7,286047001.2,N
1588955035.6,286046998.6,N
1588955055.4,286047000.9,N
1588955075.3,286047001.0,N
1588955095.1,286046998.5,N
1588955096.0,286046998.5,N
1588955115.8,286047001.0,N
1588955135.7,286047001.1,N
1588955155.5,286047000.9,N
1588955175.3,286046998.1,N
1588955195.2,286047001.0,N
1588955215.0,286047000.1,N
1588955215.9,286047000.1,N
1588955235.8,286046999.8,N
1588955255.6,286047000.2,N
1588955275.4,286047000.2,N
1588955295.3,286047001.1,N
1588955315.1,286047000.7,N
1588955335.8,286047000.4,N
1588955355.7,286046999.9,N
1588955375.5,286047000.9,N
1588955395.4,286047000.6,N
1588955415.2,286047000.9,N
1588955435.0,286047000.3,N
1588955435.9,286047000.3,N
1588955455.8,286047002.6,N
1588955475.6,286047002.0,N
1588955495.4,286047002.3,N
1588955515.3,286047002.1,N
1588955535.1,286047002.0,N
1588955555.9,286047002.1,N
1588955575.7,286047001.4,N
1588955595.5,286047004.1,Y
1588955615.4,286047001.6,P
1588955635.2,286047004.3,P
1588955655.1,286047001.4,N
1588955656.0,286047001.4,N
1588955675.8,286047001.9,N
1588955695.6,286047002.1,N
1588955715.5,286047001.3,N
1588955735.3,286047003.9,Y
1588955755.2,286047000.6,P
1588955775.9,286047000.3,N
1588955795.7,286046999.8,N
1588955815.6,286047000.6,N
1588955835.4,286047000.4,N
1588955855.2,286047000.5,N
1588955875.1,286046999.9,N
1588955876.0,286046999.9,N
1588955895.8,286047000.8,N
1588955915.7,286046998.3,Y
1588955935.5,286046999.3,P
1588955955.3,286046996.7,P
1588955975.2,286046997.5,N
1588955995.0,286046997.6,N
1588955995.9,286046997.6,N
1588956015.7,286046997.5,N
1588956035.6,286046997.3,N
1588956055.4,286046997.0,N
1588956075.3,286046999.5,N
1588956095.1,286046998.5,N
1588956096.0,286046998.5,N
1588956115.8,286047000.7,N
1588956135.7,286046998.1,N
1588956155.5,286047001.1,N
1588956175.3,286047002.8,N
1588956195.2,286047002.5,N
1588956215.0,286047000.2,N
1588956215.9,286047000.2,N
1588956235.8,286047000.5,N
1588956255.6,286047000.9,N
1588956275.4,286046998.2,N
1588956295.3,286046998.5,N
1588956315.1,286047000.5,N
1588956335.9,286047000.8,N
1588956355.7,286047000.7,N
1588956375.5,286047001.0,N
1588956395.4,286046999.9,N
1588956415.2,286047002.8,N
1588956435.0,286046999.9,N
1588956435.9,286046999.9,N
1588956455.8,286047000.1,N
1588956475.6,286046999.8,N
1588956495.5,286047002.5,N
1588956515.3,286047002.0,N
1588956535.1,286047002.3,N
1588956555.9,286047002.3,N
1588956575.7,286047001.5,N
1588956595.6,286047003.5,N
1588956615.4,286047003.7,N
1588956635.2,286047002.1,N
1588956655.1,286047001.5,N
1588956656.0,286047001.5,N
1588956675.8,286047004.0,N
1588956695.6,286047003.2,N
1588956715.5,286047005.8,Y
1588956735.3,286047003.6,P
1588956755.2,286047002.9,N
1588956775.9,286047002.9,N
1588956795.7,286047005.9,Y
1588956815.6,286047000.4,P
1588956835.4,286046998.8,N
1588956855.3,286046996.9,N
1588956875.1,286046997.4,N
1588956876.0,286046997.4,N
1588956895.8,286046997.8,N
1588956915.7,286046997.3,N
1588956935.5,286046996.8,N
1588956955.3,286046999.2,N
1588956975.2,286046998.8,N
1588956995.0,286046999.0,N
1588956995.9,286046999.0,N
1588957015.8,286046999.6,N
1588957035.6,286046996.8,N
1588957055